Location: Peebles
(55.6412°N, 3.1714°W)
Time: 11:58:11
(UTC+01:00)

FENGYUN 1C DEB - Pass Details

Date: 08 July 2022
Orbit: 580 x 1160 km, 99.3° (Epoch: 16 August)

Event Time Altitude Azimuth Distance (km) Brightness Sun altitude
Exits shadow 23:57:38 10° 139° (SE) 2,650 ? -10.0°
Maximum altitude 00:03:32 58° 63° (ENE) 1,201 ? -10.3°
Drops below altitude 10° 00:10:14 10° 347° (NNW) 3,005 ? -10.5°
Sets 00:12:58 0° 343° (NNW) 4,009 ? -10.6°
